Location: La Bilong�re
(48.1297°N, 1.4584°W)
Time: 08:05:54
(UTC+00:00)

ASTEX 1 - Pass Details

Date: 03 March 2021
Orbit: 720 x 743 km, 92.7° (Epoch: 12 April)

Event Time Altitude Azimuth Distance (km) Brightness Sun altitude
Rises 19:20:15 0° 12° (NNE) 3,150 6.6 -15.3°
Reaches altitude 10° 19:22:44 10° 22° (NNE) 2,222 5.8 -15.7°
Maximum altitude 19:27:14 35° 88° (E) 1,149 3.9 -16.4°
Enters shadow 19:30:13 18° 144° (SE) 1,705 4.9 -16.9°
